This demonstration page uses our WeatherBlox Daily Observations layout. Learn more.

Left ArrowRight Arrow

34.16533, -84.80231

Hourly Observations for September 9, 2017

Temp ( °F °C ) Dew Point ( °F °C ) Humidity (%) Winds ( mph kmh ) Pressure ( in mb ) Visibility ( mi km ) Precip ( " mm )
12:53 am 00:53 Clear 57 13.9 57 13.9 100 100 Calm 30.15 1021 10 16 0.00 0.00
1:53 am 01:53 Clear 56 13.3 56 13.3 100 100 Calm 30.15 1021 10 16 0.00 0.00
2:53 am 02:53 Clear 56 13.3 56 13.3 100 100 Calm 30.15 1021 10 16 0.00 0.00
3:53 am 03:53 Clear 55 12.8 55 12.8 100 100 Calm 30.14 1021 10 16 0.00 0.00
4:53 am 04:53 Clear 54 12.2 54 12.2 100 100 Calm 30.16 1021 10 16 0.00 0.00
5:53 am 05:53 Clear 53 11.7 53 11.7 100 100 Calm 30.17 1022 10 16 0.00 0.00
6:53 am 06:53 Clear 53 11.7 53 11.7 100 100 Calm 30.19 1022 10 16 0.00 0.00
7:53 am 07:53 Mostly Cloudy 55 12.8 55 12.8 100 100 Calm 30.21 1023 10 16 0.00 0.00
8:53 am 08:53 Sunny 60 15.6 59 15 96 96 Calm 30.21 1023 10 16 0.00 0.00
9:53 am 09:53 Sunny 68 20 59 15 73 73 VRB 3 6 30.22 1023 10 16 0.00 0.00
10:53 am 10:53 Sunny 71 21.7 56 13.3 59 59 E 10 17 30.23 1024 10 16 0.00 0.00
11:53 am 11:53 Sunny 74 23.3 55 12.8 52 52 E 7 11 30.22 1024 10 16 0.00 0.00
12:53 pm 12:53 Partly Cloudy 77 25 55 12.8 47 47 VRB 6 9 30.21 1023 10 16 0.00 0.00
1:53 pm 13:53 Partly Cloudy 77 25 55 12.8 47 47 ENE 9 15 30.19 1023 10 16 0.00 0.00
2:53 pm 14:53 Partly Cloudy 78 25.6 54 12.2 43 43 NE 13 20 30.18 1022 10 16 0.00 0.00
3:53 pm 15:53 Mostly Sunny 78 25.6 55 12.8 45 45 VRB 6 9 30.15 1021 10 16 0.00 0.00
4:53 pm 16:53 Sunny 78 25.6 54 12.2 43 43 NE 7 11 30.14 1021 10 16 0.00 0.00
5:53 pm 17:53 Sunny 77 25 55 12.8 47 47 ENE 8 13 30.14 1021 10 16 0.00 0.00
6:53 pm 18:53 Sunny 75 23.9 54 12.2 48 48 ENE 7 11 30.13 1020 10 16 0.00 0.00
7:53 pm 19:53 Sunny 71 21.7 55 12.8 57 57 Calm 30.13 1020 10 16 0.00 0.00
8:53 pm 20:53 Clear 65 18.3 56 13.3 73 73 Calm 30.14 1021 10 16 0.00 0.00
9:53 pm 21:53 Clear 62 16.7 57 13.9 84 84 Calm 30.15 1021 10 16 0.00 0.00
10:53 pm 22:53 Clear 65 18.3 56 13.3 73 73 Calm 30.16 1021 10 16 0.00 0.00
11:53 pm 23:53 Clear 65 18.3 55 12.8 70 70 Calm 30.16 1022 10 16 0.00 0.00

Powered by AerisWeather